| time (UTC) | temp F | wind direction | speed MPH | gust MPH | rain 1hr in | rain 24hr in | rain mn in | humidity % | barometer mb |
| 20260504201919 | 79 | 240 | 8.0 | 17.0 | 0.00 | 0.00 | 0.00 | 38 | 998.9 |
| 20260504201431 | 79 | 275 | 8.0 | 15.0 | 0.00 | 0.00 | 0.00 | 40 | 999.0 |
| 20260504200934 | 79 | 225 | 5.0 | 8.0 | 0.00 | 0.00 | 0.00 | 42 | 999.1 |
| 20260504200421 | 78 | 242 | 3.0 | 8.0 | 0.00 | 0.00 | 0.00 | 42 | 999.2 |
| 20260504200000 | 78 | 242 | 3.0 | 12.0 | 0.00 | 0.00 | 0.00 | 42 | 999.2 |
| 20260504195444 | 78 | 254 | 5.0 | 12.0 | 0.00 | 0.00 | 0.00 | 43 | 999.5 |
| 20260504194930 | 78 | 262 | 6.0 | 15.0 | 0.00 | 0.00 | 0.00 | 41 | 999.5 |
| 20260504194440 | 78 | 267 | 8.0 | 15.0 | 0.00 | 0.00 | 0.00 | 40 | 999.6 |
| 20260504193934 | 79 | 242 | 7.0 | 18.0 | 0.00 | 0.00 | 0.00 | 40 | 999.6 |
| 20260504193442 | 78 | 165 | 11.0 | 18.0 | 0.00 | 0.00 | 0.00 | 39 | 999.7 |
| 20260504192926 | 79 | 211 | 11.0 | 18.0 | 0.00 | 0.00 | 0.00 | 39 | 999.7 |
| 20260504192435 | 78 | 247 | 6.0 | 14.0 | 0.00 | 0.00 | 0.00 | 39 | 999.7 |
| 20260504191942 | 79 | 231 | 6.0 | 10.0 | 0.00 | 0.00 | 0.00 | 38 | 999.9 |
| 20260504191433 | 79 | 218 | 5.0 | 9.0 | 0.00 | 0.00 | 0.00 | 37 | 999.9 |
| 20260504190940 | 78 | 284 | 3.0 | 13.0 | 0.00 | 0.00 | 0.00 | 37 | 999.8 |
| 20260504190424 | 78 | 261 | 6.0 | 16.0 | 0.00 | 0.00 | 0.00 | 36 | 999.9 |
| 20260504185952 | 78 | 210 | 8.0 | 16.0 | 0.00 | 0.00 | 0.00 | 36 | 999.8 |
| 20260504185418 | 78 | 248 | 6.0 | 10.0 | 0.00 | 0.00 | 0.00 | 37 | 999.9 |
| 20260504184927 | 78 | 238 | 7.0 | 16.0 | 0.00 | 0.00 | 0.00 | 38 | 999.9 |
| 20260504184437 | 77 | 242 | 7.0 | 16.0 | 0.00 | 0.00 | 0.00 | 39 | 999.9 |
| 20260504183945 | 77 | 215 | 5.0 | 14.0 | 0.00 | 0.00 | 0.00 | 41 | 999.8 |
| 20260504183430 | 77 | 198 | 8.0 | 11.0 | 0.00 | 0.00 | 0.00 | 39 | 1000.0 |
| 20260504182922 | 77 | 228 | 6.0 | 11.0 | 0.00 | 0.00 | 0.00 | 38 | 1000.1 |
| 20260504182430 | 77 | 210 | 5.0 | 14.0 | 0.00 | 0.00 | 0.00 | 38 | 1000.2 |
| 20260504181915 | 77 | 261 | 6.0 | 14.0 | 0.00 | 0.00 | 0.00 | 38 | 1000.2 |
| 20260504181427 | 76 | 227 | 6.0 | 10.0 | 0.00 | 0.00 | 0.00 | 37 | 1000.4 |
| 20260504180915 | 76 | 231 | 6.0 | 10.0 | 0.00 | 0.00 | 0.00 | 39 | 1000.4 |
| 20260504180450 | 76 | 236 | 5.0 | 10.0 | 0.00 | 0.00 | 0.00 | 37 | 1000.5 |
| 20260504175919 | 76 | 215 | 3.0 | 10.0 | 0.00 | 0.00 | 0.00 | 40 | 1000.4 |
| 20260504175425 | 76 | 215 | 6.0 | 11.0 | 0.00 | 0.01 | 0.00 | 40 | 1000.5 |
| 20260504174914 | 76 | 211 | 3.0 | 9.0 | 0.00 | 0.01 | 0.00 | 44 | 1000.5 |
| 20260504174444 | 75 | 242 | 5.0 | 12.0 | 0.00 | 0.01 | 0.00 | 42 | 1000.5 |
| 20260504173931 | 75 | 234 | 5.0 | 15.0 | 0.00 | 0.01 | 0.00 | 45 | 1000.5 |
| 20260504173440 | 75 | 188 | 5.0 | 19.0 | 0.00 | 0.01 | 0.00 | 44 | 1000.6 |
| 20260504172929 | 74 | 200 | 8.0 | 18.0 | 0.00 | 0.01 | 0.00 | 43 | 1000.5 |
| 20260504172415 | 74 | 215 | 8.0 | 14.0 | 0.00 | 0.01 | 0.00 | 43 | 1000.9 |
| 20260504171921 | 74 | 229 | 5.0 | 14.0 | 0.00 | 0.01 | 0.00 | 46 | 1000.9 |
| 20260504171414 | 74 | 196 | 4.0 | 18.0 | 0.00 | 0.01 | 0.00 | 47 | 1001.0 |
| 20260504170919 | 74 | 227 | 6.0 | 18.0 | 0.00 | 0.01 | 0.00 | 46 | 1001.0 |
| 20260504170426 | 74 | 253 | 5.0 | 12.0 | 0.00 | 0.01 | 0.00 | 46 | 1001.1 |
| 20260504160426 | 71 | 212 | 6.0 | 9.0 | 0.00 | 0.01 | 0.00 | 51 | 1001.9 |
| 20260504150929 | 67 | 225 | 3.0 | 9.0 | 0.00 | 0.01 | 0.00 | 56 | 1002.6 |
| 20260504150436 | 67 | 229 | 4.0 | 10.0 | 0.00 | 0.01 | 0.00 | 57 | 1002.6 |
| 20260504140915 | 63 | 206 | 4.0 | 9.0 | 0.00 | 0.01 | 0.00 | 61 | 1003.2 |
| 20260504140422 | 63 | 215 | 3.0 | 9.0 | 0.00 | 0.01 | 0.00 | 63 | 1003.3 |
| 20260504130425 | 56 | 32 | 4.0 | 8.0 | 0.00 | 0.01 | 0.00 | 74 | 1003.8 |
| 20260504110420 | 49 | 21 | 3.0 | 7.0 | 0.00 | 0.01 | 0.00 | 83 | 1004.1 |
| 20260504100433 | 50 | 19 | 3.0 | 6.0 | 0.00 | 0.01 | 0.00 | 81 | 1004.4 |
| 20260504081919 | 51 | 19 | 3.0 | 5.0 | 0.00 | 0.01 | 0.00 | 79 | 1004.2 |
| 20260504081428 | 51 | 17 | 3.0 | 4.0 | 0.00 | 0.01 | 0.00 | 79 | 1004.2 |
| 20260504080934 | 51 | 17 | 3.0 | 4.0 | 0.00 | 0.01 | 0.00 | 79 | 1004.3 |
| 20260504080437 | 52 | 15 | 0.0 | 3.0 | 0.00 | 0.01 | 0.00 | 78 | 1004.2 |
| 20260504050415 | 59 | 15 | 3.0 | 8.0 | 0.00 | 0.01 | 0.01 | 67 | 1005.8 |
| 20260504045947 | 59 | 14 | 3.0 | 9.0 | 0.00 | 0.01 | 0.01 | 67 | 1005.8 |
| 20260504045416 | 59 | 14 | 4.0 | 9.0 | 0.00 | 0.01 | 0.01 | 67 | 1005.8 |
| 20260504044951 | 59 | 14 | 4.0 | 8.0 | 0.00 | 0.01 | 0.01 | 67 | 1005.8 |
| 20260504044421 | 59 | 14 | 4.0 | 8.0 | 0.00 | 0.01 | 0.01 | 67 | 1005.8 |
| 20260504043930 | 59 | 14 | 4.0 | 9.0 | 0.00 | 0.01 | 0.01 | 67 | 1005.9 |
| 20260504043420 | 59 | 13 | 5.0 | 9.0 | 0.00 | 0.01 | 0.01 | 67 | 1005.8 |
| 20260504042933 | 59 | 13 | 4.0 | 10.0 | 0.00 | 0.01 | 0.01 | 67 | 1005.8 |
| 20260504042442 | 58 | 14 | 4.0 | 8.0 | 0.00 | 0.01 | 0.01 | 68 | 1005.8 |
| 20260504041950 | 58 | 13 | 4.0 | 8.0 | 0.00 | 0.01 | 0.01 | 67 | 1005.9 |
| 20260504041438 | 58 | 13 | 4.0 | 9.0 | 0.00 | 0.01 | 0.01 | 67 | 1005.7 |
| 20260504040948 | 59 | 13 | 5.0 | 11.0 | 0.00 | 0.01 | 0.01 | 67 | 1005.8 |
| 20260504040415 | 59 | 13 | 4.0 | 11.0 | 0.00 | 0.01 | 0.01 | 67 | 1005.8 |
| 20260504035946 | 58 | 13 | 4.0 | 7.0 | 0.00 | 0.01 | 0.01 | 67 | 1005.8 |
| 20260504035414 | 59 | 14 | 2.0 | 5.0 | 0.00 | 0.01 | 0.01 | 67 | 1005.8 |
| 20260504034951 | 59 | 15 | 3.0 | 6.0 | 0.00 | 0.01 | 0.01 | 67 | 1005.8 |
| 20260504034423 | 59 | 13 | 3.0 | 7.0 | 0.00 | 0.01 | 0.01 | 66 | 1006.0 |
| 20260504033933 | 59 | 14 | 3.0 | 6.0 | 0.00 | 0.01 | 0.01 | 66 | 1006.0 |
| 20260504033423 | 59 | 14 | 3.0 | 6.0 | 0.00 | 0.01 | 0.01 | 65 | 1006.1 |
| 20260504032932 | 59 | 14 | 3.0 | 6.0 | 0.00 | 0.01 | 0.01 | 65 | 1006.2 |
| 20260504032419 | 59 | 15 | 3.0 | 5.0 | 0.00 | 0.01 | 0.01 | 65 | 1006.2 |
| 20260504031953 | 59 | 15 | 2.0 | 6.0 | 0.00 | 0.01 | 0.01 | 64 | 1006.3 |
| 20260504031419 | 60 | 15 | 3.0 | 6.0 | 0.00 | 0.01 | 0.01 | 64 | 1006.2 |
| 20260504030956 | 60 | 17 | 3.0 | 5.0 | 0.00 | 0.01 | 0.01 | 63 | 1006.3 |
| 20260504030443 | 60 | 15 | 3.0 | 5.0 | 0.00 | 0.01 | 0.01 | 63 | 1006.4 |
| 20260504025926 | 60 | 15 | 3.0 | 5.0 | 0.00 | 0.01 | 0.01 | 63 | 1006.4 |
| 20260504025417 | 60 | 19 | 2.0 | 5.0 | 0.00 | 0.01 | 0.01 | 63 | 1006.3 |
| 20260504024927 | 60 | 17 | 3.0 | 5.0 | 0.00 | 0.01 | 0.01 | 62 | 1006.4 |
| 20260504024419 | 60 | 17 | 2.0 | 5.0 | 0.00 | 0.01 | 0.01 | 62 | 1006.3 |
| 20260504023926 | 61 | 17 | 2.0 | 4.0 | 0.00 | 0.01 | 0.01 | 61 | 1006.4 |
| 20260504023436 | 61 | 22 | 2.0 | 4.0 | 0.00 | 0.01 | 0.01 | 61 | 1006.4 |
| 20260504022923 | 61 | 19 | 2.0 | 5.0 | 0.00 | 0.01 | 0.01 | 60 | 1006.3 |
| 20260504022430 | 61 | 17 | 2.0 | 5.0 | 0.00 | 0.01 | 0.01 | 60 | 1006.3 |
| 20260504021918 | 61 | 16 | 2.0 | 4.0 | 0.00 | 0.01 | 0.01 | 60 | 1006.2 |
| 20260504021424 | 62 | 17 | 3.0 | 8.0 | 0.00 | 0.01 | 0.01 | 59 | 1006.1 |
| 20260504020959 | 62 | 17 | 4.0 | 8.0 | 0.00 | 0.01 | 0.01 | 59 | 1006.2 |
| 20260504020448 | 62 | 18 | 3.0 | 5.0 | 0.00 | 0.01 | 0.01 | 59 | 1006.2 |
| 20260504015920 | 62 | 18 | 3.0 | 5.0 | 0.00 | 0.01 | 0.01 | 59 | 1006.0 |
| 20260504015428 | 62 | 22 | 3.0 | 8.0 | 0.00 | 0.01 | 0.01 | 58 | 1005.9 |
| 20260504014937 | 62 | 24 | 3.0 | 6.0 | 0.00 | 0.01 | 0.01 | 58 | 1006.0 |
| 20260504014429 | 63 | 24 | 3.0 | 5.0 | 0.00 | 0.01 | 0.01 | 58 | 1005.9 |
| 20260504013919 | 63 | 20 | 3.0 | 8.0 | 0.00 | 0.01 | 0.01 | 57 | 1005.9 |
| 20260504013455 | 63 | 18 | 4.0 | 9.0 | 0.00 | 0.01 | 0.01 | 57 | 1005.8 |
| 20260504012926 | 63 | 23 | 3.0 | 8.0 | 0.00 | 0.01 | 0.01 | 56 | 1005.9 |
| 20260504012415 | 63 | 23 | 3.0 | 8.0 | 0.00 | 0.01 | 0.01 | 56 | 1005.8 |
| 20260504011925 | 64 | 28 | 3.0 | 8.0 | 0.00 | 0.01 | 0.01 | 56 | 1005.9 |
| 20260504011433 | 64 | 24 | 4.0 | 9.0 | 0.00 | 0.01 | 0.01 | 56 | 1005.8 |
| 20260504010940 | 64 | 28 | 3.0 | 9.0 | 0.00 | 0.01 | 0.01 | 55 | 1005.8 |
| 20260504010427 | 64 | 23 | 3.0 | 9.0 | 0.00 | 0.01 | 0.01 | 55 | 1005.8 |
| 20260504005919 | 64 | 26 | 4.0 | 6.0 | 0.00 | 0.01 | 0.01 | 55 | 1005.8 |
| 20260504005429 | 65 | 22 | 4.0 | 6.0 | 0.00 | 0.01 | 0.01 | 54 | 1005.7 |
| 20260504004918 | 65 | 23 | 4.0 | 10.0 | 0.00 | 0.01 | 0.01 | 54 | 1005.7 |
| 20260504004431 | 65 | 19 | 6.0 | 11.0 | 0.00 | 0.01 | 0.01 | 53 | 1005.8 |
| 20260504003942 | 65 | 23 | 6.0 | 11.0 | 0.00 | 0.01 | 0.01 | 53 | 1005.8 |
| 20260504003431 | 66 | 30 | 4.0 | 12.0 | 0.00 | 0.01 | 0.01 | 53 | 1005.9 |
| 20260504002922 | 66 | 33 | 4.0 | 12.0 | 0.00 | 0.01 | 0.01 | 52 | 1005.8 |
| 20260504002431 | 66 | 30 | 6.0 | 13.0 | 0.00 | 0.01 | 0.01 | 51 | 1005.8 |
| 20260504001940 | 66 | 27 | 6.0 | 13.0 | 0.00 | 0.01 | 0.01 | 51 | 1005.9 |
| 20260504001446 | 67 | 34 | 5.0 | 13.0 | 0.00 | 0.01 | 0.01 | 51 | 1005.9 |
| 20260504000915 | 67 | 215 | 5.0 | 9.0 | 0.00 | 0.01 | 0.01 | 50 | 1005.9 |
| 20260504000423 | 67 | 227 | 5.0 | 10.0 | 0.00 | 0.01 | 0.01 | 50 | 1005.8 |
| 20260503235934 | 67 | 231 | 6.0 | 10.0 | 0.00 | 0.01 | 0.01 | 50 | 1005.8 |
| 20260503235423 | 67 | 207 | 4.0 | 9.0 | 0.00 | 0.01 | 0.01 | 50 | 1005.8 |
| 20260503234931 | 68 | 250 | 4.0 | 9.0 | 0.00 | 0.01 | 0.01 | 49 | 1005.8 |
| 20260503234421 | 68 | 212 | 4.0 | 11.0 | 0.00 | 0.01 | 0.01 | 49 | 1005.9 |
| 20260503233930 | 68 | 247 | 5.0 | 11.0 | 0.00 | 0.01 | 0.01 | 48 | 1005.9 |
| 20260503233418 | 68 | 218 | 6.0 | 11.0 | 0.00 | 0.01 | 0.01 | 48 | 1005.9 |
| 20260503232928 | 68 | 209 | 4.0 | 14.0 | 0.00 | 0.01 | 0.01 | 47 | 1005.8 |
| 20260503232417 | 68 | 213 | 6.0 | 14.0 | 0.00 | 0.01 | 0.01 | 47 | 1005.8 |
| 20260503231923 | 68 | 254 | 3.0 | 18.0 | 0.00 | 0.01 | 0.01 | 48 | 1005.9 |
| 20260503231430 | 68 | 249 | 6.0 | 18.0 | 0.00 | 0.01 | 0.01 | 47 | 1005.8 |
| 20260503230938 | 68 | 215 | 5.0 | 11.0 | 0.00 | 0.01 | 0.01 | 47 | 1005.8 |
| 20260503230447 | 68 | 207 | 4.0 | 14.0 | 0.00 | 0.01 | 0.01 | 47 | 1005.9 |
| 20260503225932 | 68 | 246 | 5.0 | 14.0 | 0.00 | 0.01 | 0.01 | 47 | 1006.0 |
| 20260503225420 | 68 | 195 | 7.0 | 14.0 | 0.00 | 0.01 | 0.01 | 46 | 1006.0 |
| 20260503224926 | 68 | 250 | 4.0 | 14.0 | 0.00 | 0.01 | 0.01 | 47 | 1006.0 |
| 20260503224438 | 68 | 215 | 8.0 | 14.0 | 0.00 | 0.01 | 0.01 | 46 | 1006.0 |
| 20260503223948 | 68 | 203 | 8.0 | 14.0 | 0.00 | 0.01 | 0.01 | 46 | 1006.0 |
| 20260503223434 | 68 | 207 | 7.0 | 17.0 | 0.00 | 0.01 | 0.01 | 47 | 1006.1 |
| 20260503222926 | 68 | 238 | 6.0 | 17.0 | 0.00 | 0.01 | 0.01 | 46 | 1006.1 |
| 20260503222415 | 68 | 182 | 8.0 | 15.0 | 0.00 | 0.01 | 0.01 | 46 | 1006.2 |
| 20260503221920 | 68 | 231 | 7.0 | 15.0 | 0.00 | 0.01 | 0.01 | 46 | 1006.2 |
| 20260503221429 | 67 | 216 | 9.0 | 15.0 | 0.00 | 0.01 | 0.01 | 46 | 1006.3 |
| 20260503220934 | 67 | 207 | 6.0 | 15.0 | 0.00 | 0.01 | 0.01 | 47 | 1006.4 |
| 20260503220421 | 66 | 203 | 4.0 | 11.0 | 0.00 | 0.01 | 0.01 | 48 | 1006.5 |
| 20260503215932 | 66 | 204 | 5.0 | 14.0 | 0.00 | 0.01 | 0.01 | 48 | 1006.4 |
| 20260503215420 | 66 | 207 | 6.0 | 14.0 | 0.00 | 0.01 | 0.01 | 48 | 1006.4 |
| 20260503214930 | 65 | 190 | 7.0 | 14.0 | 0.00 | 0.01 | 0.01 | 48 | 1006.5 |
| 20260503214439 | 66 | 203 | 9.0 | 15.0 | 0.00 | 0.01 | 0.01 | 48 | 1006.5 |
| 20260503213945 | 66 | 229 | 7.0 | 18.0 | 0.00 | 0.01 | 0.01 | 49 | 1006.7 |
| 20260503213432 | 66 | 191 | 10.0 | 18.0 | 0.00 | 0.01 | 0.01 | 46 | 1006.6 |
| 20260503212923 | 66 | 206 | 7.0 | 21.0 | 0.00 | 0.01 | 0.01 | 48 | 1006.9 |
| 20260503212429 | 66 | 186 | 10.0 | 21.0 | 0.00 | 0.01 | 0.01 | 48 | 1006.9 |
| 20260503211918 | 65 | 221 | 8.0 | 15.0 | 0.00 | 0.01 | 0.01 | 47 | 1007.2 |
| 20260503211445 | 65 | 190 | 10.0 | 15.0 | 0.00 | 0.01 | 0.01 | 47 | 1007.2 |
| 20260503210929 | 66 | 152 | 8.0 | 14.0 | 0.00 | 0.01 | 0.01 | 47 | 1007.1 |
| 20260503210417 | 65 | 245 | 10.0 | 17.0 | 0.00 | 0.01 | 0.01 | 47 | 1007.4 |
| 20260503205930 | 64 | 218 | 8.0 | 17.0 | 0.00 | 0.01 | 0.01 | 48 | 1007.4 |
| 20260503205419 | 64 | 210 | 9.0 | 15.0 | 0.00 | 0.01 | 0.01 | 46 | 1007.5 |
| 20260503204926 | 64 | 217 | 7.0 | 15.0 | 0.00 | 0.01 | 0.01 | 46 | 1007.6 |
| 20260503204438 | 64 | 171 | 9.0 | 17.0 | 0.00 | 0.01 | 0.01 | 46 | 1007.7 |
| 20260503203944 | 65 | 238 | 10.0 | 18.0 | 0.00 | 0.01 | 0.01 | 45 | 1007.9 |
| 20260503203429 | 66 | 206 | 9.0 | 17.0 | 0.00 | 0.01 | 0.01 | 45 | 1007.9 |
| 20260503202941 | 66 | 195 | 6.0 | 21.0 | 0.00 | 0.01 | 0.01 | 46 | 1008.0 |
| 20260503202455 | 65 | 211 | 11.0 | 20.0 | 0.00 | 0.01 | 0.01 | 45 | 1008.0 |